Location: Étang Rond
(42.7927°N, 1.0661°E)
Time: 23:10:28
(UTC+00:00)

ACS3 Solar Sail - Pass Details

Date: 08 November 2025
Orbit: 887 x 1001 km, 97.3° (Epoch: 13 December)

Event Time Altitude Azimuth Distance (km) Brightness Sun altitude
Rises 05:23:54 0° 352° (N) 3,525 4.5 -14.0°
Reaches altitude 10° 05:28:19 10° 319° (NW) 2,601 3.6 -13.2°
Enters shadow 05:28:24 10° 319° (NW) 2,592 3.6 -13.2°
